This demonstration page uses our WeatherBlox Daily Observations layout. Learn more.

Left ArrowRight Arrow

Hourly Observations for January 31, 2017

Temp ( °F °C ) Dew Point ( °F °C ) Humidity (%) Winds ( mph kmh ) Pressure ( in mb ) Visibility ( mi km ) Precip ( " mm )
12:15 am 00:15 Clear 27 -3 21 -6 80 80 SSE 6 9 30.03 1017 10 16 N/A
12:35 am 00:35 Clear 28 -2 21 -6 74 74 S 5 7 30.03 1017 10 16 N/A
12:55 am 00:55 Clear 27 -3 21 -6 80 80 N N/A 30.06 1018 10 16 N/A
1:15 am 01:15 Mostly Cloudy 28 -2 21 -6 74 74 N N/A 30.06 1018 10 16 N/A
1:35 am 01:35 Cloudy 28 -2 21 -6 74 74 N N/A 30.06 1018 10 16 N/A
1:55 am 01:55 Cloudy 28 -2 23 -5 80 80 N N/A 30.06 1018 10 16 N/A
2:15 am 02:15 Cloudy 30 -1 21 -6 69 69 S 3 6 30.06 1018 10 16 N/A
2:35 am 02:35 Cloudy 30 -1 21 -6 69 69 S 7 11 30.03 1017 10 16 N/A
2:55 am 02:55 Cloudy 30 -1 21 -6 69 69 S 6 9 30.03 1017 10 16 N/A
3:15 am 03:15 Cloudy 30 -1 21 -6 69 69 N N/A 30.00 1016 10 16 N/A
3:35 am 03:35 Cloudy 30 -1 21 -6 69 69 SSW 5 7 30.03 1017 10 16 N/A
3:55 am 03:55 Cloudy 30 -1 21 -6 69 69 S 8 13 30.00 1016 10 16 N/A
4:15 am 04:15 Cloudy 30 -1 21 -6 69 69 S 13 20 29.97 1015 10 16 N/A
4:35 am 04:35 Cloudy 30 -1 21 -6 69 69 S 12 19 29.97 1015 10 16 N/A
4:55 am 04:55 Cloudy 30 -1 21 -6 69 69 S 9 15 29.97 1015 10 16 N/A
5:15 am 05:15 Cloudy 32 undefined 21 -6 64 64 S 10 17 29.97 1015 10 16 N/A
5:35 am 05:35 Cloudy 32 undefined 21 -6 64 64 S 8 13 29.94 1014 10 16 N/A
5:55 am 05:55 Cloudy 32 undefined 23 -5 69 69 S 10 17 29.94 1014 10 16 N/A
6:15 am 06:15 Cloudy 32 undefined 23 -5 69 69 S 9 15 29.94 1014 10 16 N/A
6:35 am 06:35 Cloudy 32 undefined 21 -6 64 64 S 8 13 29.94 1014 10 16 N/A
6:55 am 06:55 Cloudy 32 undefined 21 -6 64 64 S 8 13 29.91 1013 10 16 N/A
7:15 am 07:15 Cloudy 32 undefined 21 -6 64 64 S 9 15 29.88 1012 10 16 N/A
7:35 am 07:35 Mostly Cloudy 32 undefined 21 -6 64 64 S 9 15 29.85 1011 10 16 N/A
7:55 am 07:55 Mostly Cloudy 32 undefined 21 -6 64 64 S 8 13 29.88 1012 10 16 N/A
8:15 am 08:15 Mostly Cloudy 32 undefined 21 -6 64 64 S 10 17 29.85 1011 10 16 N/A
8:35 am 08:35 Partly Cloudy 32 undefined 21 -6 64 64 SSW 12 19 29.85 1011 10 16 N/A
8:55 am 08:55 Partly Cloudy 32 undefined 21 -6 64 64 SSW 9 15 29.85 1011 10 16 N/A
9:15 am 09:15 Mostly Cloudy 32 undefined 21 -6 64 64 S 12 19 29.83 1010 10 16 N/A
9:35 am 09:35 Mostly Cloudy 34 1 21 -6 60 60 SSW 13 20 29.83 1010 10 16 N/A
9:55 am 09:55 Mostly Cloudy 34 1 21 -6 60 60 S 12 19 29.83 1010 10 16 N/A
10:15 am 10:15 Cloudy 36 2 23 -5 60 60 S 13 20 29.83 1010 10 16 N/A
10:35 am 10:35 Cloudy 37 3 23 -5 56 56 SSW 13 20 29.80 1009 10 16 N/A
10:55 am 10:55 Partly Cloudy 37 3 23 -5 56 56 SSW 9 15 29.80 1009 10 16 N/A
11:15 am 11:15 Mostly Cloudy 41 5 23 -5 49 49 S 13 20 29.77 1008 10 16 N/A
11:35 am 11:35 Cloudy 41 5 25 -4 53 53 S 9 15 29.77 1008 10 16 N/A
11:55 am 11:55 Mostly Cloudy 43 6 25 -4 49 49 SSW 8 13 29.77 1008 10 16 N/A
12:15 pm 12:15 Partly Cloudy 45 7 27 -3 49 49 S 6 9 29.71 1006 10 16 N/A
12:35 pm 12:35 Partly Cloudy 46 8 27 -3 46 46 SW 7 11 29.71 1006 10 16 N/A
12:55 pm 12:55 Sunny 46 8 28 -2 50 50 WSW 3 6 29.71 1006 10 16 N/A
1:15 pm 13:15 Partly Cloudy 50 10 28 -2 43 43 W 9 15 29.71 1006 10 16 N/A
1:35 pm 13:35 Partly Cloudy 50 10 30 -1 47 47 SW 5 7 29.68 1005 10 16 N/A
1:55 pm 13:55 Sunny 52 11 30 -1 44 44 SW 8 13 29.68 1005 10 16 N/A
2:15 pm 14:15 Partly Cloudy 54 12 30 -1 41 41 SW 8 13 29.68 1005 10 16 N/A
2:35 pm 14:35 Cloudy 55 13 32 undefined 41 41 WSW 8 13 29.68 1005 10 16 N/A
2:55 pm 14:55 Cloudy 57 14 32 undefined 39 39 W 15 24 29.68 1005 10 16 N/A
3:15 pm 15:15 Mostly Cloudy 59 15 32 undefined 36 36 WNW 21 33 29.71 1006 10 16 N/A
3:35 pm 15:35 Mostly Cloudy 59 15 32 undefined 36 36 WNW 18 30 29.71 1006 10 16 N/A
3:55 pm 15:55 Partly Cloudy 57 14 30 -1 36 36 W 23 37 29.71 1006 10 16 N/A
4:15 pm 16:15 Partly Cloudy 55 13 30 -1 38 38 NW 17 28 29.74 1007 10 16 N/A
4:35 pm 16:35 Partly Cloudy 55 13 30 -1 38 38 WNW 18 30 29.74 1007 10 16 N/A
4:55 pm 16:55 Partly Cloudy 54 12 30 -1 41 41 WNW 21 33 29.77 1008 10 16 N/A
5:15 pm 17:15 Partly Cloudy 54 12 30 -1 41 41 WNW 13 20 29.77 1008 10 16 N/A
5:35 pm 17:35 Clear 54 12 28 -2 38 38 WNW 23 37 29.80 1009 10 16 N/A
5:55 pm 17:55 Clear 52 11 28 -2 41 41 WNW 15 24 29.80 1009 10 16 N/A
6:15 pm 18:15 Clear 52 11 28 -2 41 41 WNW 12 19 29.80 1009 10 16 N/A
6:35 pm 18:35 Clear 50 10 28 -2 43 43 WNW 12 19 29.80 1009 10 16 N/A
7:15 pm 19:15 Clear 48 9 32 undefined 54 54 NNW 8 13 29.83 1010 10 16 N/A
7:35 pm 19:35 Clear 46 8 32 undefined 57 57 N 7 11 29.83 1010 10 16 N/A
7:55 pm 19:55 Clear 46 8 32 undefined 57 57 N 6 9 29.83 1010 10 16 N/A
8:15 pm 20:15 Clear 45 7 32 undefined 61 61 N N/A 29.85 1011 10 16 N/A
8:35 pm 20:35 Partly Cloudy 43 6 32 undefined 66 66 N N/A 29.88 1012 10 16 N/A
8:55 pm 20:55 Partly Cloudy 41 5 30 -1 66 66 N N/A 29.88 1012 10 16 N/A
9:15 pm 21:15 Partly Cloudy 39 4 32 undefined 75 75 NNW 7 11 29.91 1013 10 16 N/A
9:35 pm 21:35 Mostly Cloudy 43 6 32 undefined 66 66 WNW 3 6 29.91 1013 10 16 N/A
9:55 pm 21:55 Mostly Cloudy 43 6 32 undefined 66 66 undefined N/A 29.91 1013 10 16 N/A
10:15 pm 22:15 Mostly Cloudy 41 5 32 undefined 70 70 WNW 7 11 29.91 1013 10 16 N/A
10:35 pm 22:35 Mostly Cloudy 43 6 32 undefined 66 66 WNW 8 13 29.91 1013 10 16 N/A
10:55 pm 22:55 Partly Cloudy 41 5 32 undefined 70 70 WNW 6 9 29.91 1013 10 16 N/A
11:15 pm 23:15 Clear 41 5 32 undefined 70 70 W 9 15 29.91 1013 10 16 N/A
11:35 pm 23:35 Clear 41 5 32 undefined 70 70 NW 7 11 29.94 1014 10 16 N/A
11:55 pm 23:55 Clear 37 3 32 undefined 81 81 undefined N/A 29.94 1014 10 16 N/A

Powered by AerisWeather